Location: Klinovec
(50.3970°N, 12.9600°E)
Time: 08:38:34
(UTC+01:00)

N. Korean satellite - Pass Details

Date: 23 November 2019
Orbit: 456 x 506 km, 97.2° (Epoch: 09 December)

Event Time Altitude Azimuth Distance (km) Brightness Sun altitude
Rises 17:36:59 0° 186° (S) 2,576 10.6 -12.9°
Reaches altitude 10° 17:39:10 10° 196° (SSW) 1,705 9.8 -13.2°
Maximum altitude 17:42:34 35° 263° (W) 830 8.4 -13.7°
Drops below altitude 10° 17:46:02 10° 331° (NNW) 1,732 9.5 -14.2°
Sets 17:48:16 0° 340° (NNW) 2,625 10.4 -14.6°
